TimeCST,TemperatureF,Dew PointF,Humidity,Sea Level PressureIn,VisibilityMPH,Wind Direction,Wind SpeedMPH,Gust SpeedMPH,PrecipitationIn,Events,Conditions,WindDirDegrees,DateUTC
12:53 AM,51.1,48.0,89,30.02,10.0,Calm,Calm,-,N/A,,Clear,0,2012-12-07 06:53:00
1:53 AM,50.0,48.0,93,30.01,10.0,Calm,Calm,-,N/A,,Clear,0,2012-12-07 07:53:00
2:53 AM,50.0,48.0,93,30.00,8.0,Calm,Calm,-,N/A,,Clear,0,2012-12-07 08:53:00
3:53 AM,50.0,46.9,89,30.01,7.0,Calm,Calm,-,N/A,,Scattered Clouds,0,2012-12-07 09:53:00
4:04 AM,50.0,46.4,87,30.00,6.0,Calm,Calm,-,N/A,,Mostly Cloudy,0,2012-12-07 10:04:00
4:09 AM,50.0,46.4,87,30.00,0.8,Calm,Calm,-,N/A,,Mist,0,2012-12-07 10:09:00
4:30 AM,51.8,48.2,88,30.01,2.5,Calm,Calm,-,N/A,,Overcast,0,2012-12-07 10:30:00
4:35 AM,51.8,48.2,88,30.01,8.0,Calm,Calm,-,N/A,,Overcast,0,2012-12-07 10:35:00
4:53 AM,52.0,50.0,93,30.01,6.0,Calm,Calm,-,N/A,,Overcast,0,2012-12-07 10:53:00
5:12 AM,53.6,51.8,94,30.02,6.0,Calm,Calm,-,N/A,,Overcast,0,2012-12-07 11:12:00
5:53 AM,55.9,54.0,93,30.03,5.0,Calm,Calm,-,N/A,,Overcast,0,2012-12-07 11:53:00
6:03 AM,55.4,53.6,94,30.03,4.0,Calm,Calm,-,N/A,,Overcast,0,2012-12-07 12:03:00
6:11 AM,57.2,53.6,88,30.03,6.0,East,3.5,-,N/A,,Overcast,80,2012-12-07 12:11:00
6:53 AM,59.0,55.9,90,30.04,5.0,ESE,3.5,-,N/A,,Overcast,110,2012-12-07 12:53:00
7:32 AM,59.0,55.4,88,30.04,6.0,ESE,5.8,-,N/A,,Overcast,110,2012-12-07 13:32:00
7:53 AM,59.0,57.0,93,30.05,6.0,ESE,4.6,-,N/A,,Overcast,120,2012-12-07 13:53:00
8:53 AM,61.0,57.0,87,30.06,7.0,SE,5.8,-,N/A,,Overcast,130,2012-12-07 14:53:00
9:53 AM,62.1,57.9,86,30.06,8.0,SE,11.5,-,N/A,,Overcast,130,2012-12-07 15:53:00
10:53 AM,63.0,57.9,84,30.04,10.0,SSE,9.2,-,N/A,,Overcast,150,2012-12-07 16:53:00
11:53 AM,64.0,57.9,80,30.01,10.0,ESE,8.1,-,N/A,,Overcast,120,2012-12-07 17:53:00
12:24 PM,64.4,57.2,77,30.00,10.0,SE,9.2,-,N/A,,Overcast,140,2012-12-07 18:24:00
12:53 PM,66.0,57.9,75,29.97,10.0,ESE,6.9,-,N/A,,Overcast,120,2012-12-07 18:53:00
1:53 PM,66.0,57.9,75,29.97,10.0,ESE,5.8,-,N/A,,Overcast,110,2012-12-07 19:53:00
2:53 PM,64.9,57.9,78,29.98,10.0,East,4.6,-,N/A,,Overcast,90,2012-12-07 20:53:00
3:53 PM,64.9,57.9,78,29.98,10.0,SE,6.9,-,N/A,,Overcast,130,2012-12-07 21:53:00
4:53 PM,64.0,57.9,80,29.98,10.0,SE,4.6,-,N/A,,Overcast,130,2012-12-07 22:53:00
5:33 PM,64.4,57.2,77,29.98,10.0,SE,4.6,-,N/A,,Overcast,140,2012-12-07 23:33:00
5:53 PM,63.0,57.9,84,29.97,10.0,ESE,4.6,-,N/A,,Overcast,110,2012-12-07 23:53:00
6:51 PM,62.6,59.0,88,29.98,10.0,East,3.5,-,N/A,,Overcast,100,2012-12-08 00:51:00
7:53 PM,63.0,59.0,87,29.99,10.0,ESE,3.5,-,N/A,,Overcast,110,2012-12-08 01:53:00
8:53 PM,63.0,59.0,87,30.00,10.0,Calm,Calm,-,N/A,,Overcast,0,2012-12-08 02:53:00
9:34 PM,62.6,59.0,88,30.01,10.0,Calm,Calm,-,N/A,,Overcast,0,2012-12-08 03:34:00
9:53 PM,63.0,59.0,87,30.01,10.0,SE,3.5,-,N/A,,Overcast,140,2012-12-08 03:53:00
10:27 PM,62.6,59.0,88,30.01,10.0,SE,4.6,-,N/A,,Overcast,130,2012-12-08 04:27:00
10:53 PM,63.0,59.0,87,30.01,10.0,ESE,4.6,-,N/A,,Overcast,120,2012-12-08 04:53:00
11:00 PM,62.6,59.0,88,30.02,10.0,SE,4.6,-,N/A,,Overcast,130,2012-12-08 05:00:00
11:53 PM,63.0,59.0,87,30.00,10.0,SE,4.6,-,N/A,,Overcast,130,2012-12-08 05:53:00